Fecha, hora, temperatura, viento dirección y velocidad, humedad y presión.

  • 20-03-2019 00:00:00 | 7.60°C | Sudeste |5.00 km/h | 99.00% | 992.30 hPa
  • 19-03-2019 23:00:00 | 7.50°C | Calma |0.00 km/h | 99.00% | 992.10 hPa
  • 19-03-2019 22:00:00 | 7.60°C | Oeste |3.00 km/h | 98.00% | 991.90 hPa
  • 19-03-2019 21:00:00 | 7.90°C | Calma |0.00 km/h | 96.00% | 991.50 hPa
  • 19-03-2019 20:00:00 | 8.10°C | Sur |2.00 km/h | 97.00% | 991.10 hPa
  • 19-03-2019 19:00:00 | 8.60°C | Sur |4.00 km/h | 98.00% | 990.90 hPa
  • 19-03-2019 18:00:00 | 8.20°C | Noroeste |2.00 km/h | 94.00% | 990.40 hPa
  • 19-03-2019 17:00:00 | 8.40°C | Este |3.00 km/h | 95.00% | 990.50 hPa
  • 19-03-2019 16:00:00 | 8.50°C | Sudeste |6.00 km/h | 95.00% | 990.30 hPa
  • 19-03-2019 15:00:00 | 9.50°C | Sur |7.00 km/h | 91.00% | 990.20 hPa
  • 19-03-2019 14:00:00 | 9.20°C | Este |4.00 km/h | 95.00% | 990.70 hPa
  • 19-03-2019 13:00:00 | 8.70°C | Noroeste |3.00 km/h | 92.00% | 990.70 hPa
  • 19-03-2019 12:00:00 | 7.90°C | Noroeste |2.00 km/h | 99.00% | 990.80 hPa
  • 19-03-2019 11:00:00 | 7.10°C | Oeste |6.00 km/h | 100.00% | 990.80 hPa
  • 19-03-2019 10:00:00 | 6.60°C | Oeste |11.00 km/h | 100.00% | 990.40 hPa
  • 19-03-2019 09:00:00 | 6.20°C | Noroeste |5.00 km/h | 100.00% | 990.00 hPa
  • 19-03-2019 08:00:00 | 6.00°C | Noroeste |4.00 km/h | 99.00% | 989.50 hPa
  • 19-03-2019 07:00:00 | 6.00°C | Oeste |8.00 km/h | 99.00% | 989.30 hPa
  • 19-03-2019 06:00:00 | 6.10°C | Oeste |4.00 km/h | 96.00% | 989.10 hPa
  • 19-03-2019 05:00:00 | 6.50°C | Noroeste |6.00 km/h | 92.00% | 989.00 hPa
  • 19-03-2019 04:00:00 | 6.70°C | Noroeste |2.00 km/h | 89.00% | 989.10 hPa
  • 19-03-2019 03:00:00 | 6.70°C | Noroeste |5.00 km/h | 90.00% | 989.70 hPa
  • 19-03-2019 02:00:00 | 7.00°C | Oeste |4.00 km/h | 88.00% | 990.10 hPa
  • 19-03-2019 01:00:00 | 7.00°C | Noroeste |3.00 km/h | 89.00% | 990.10 hPa
    • diseño web asturias Información sobre el estado de las mareas, altura de la marejada, temperatura del agua y otros datos de Gijón en Asturias.

      Surf Gijón